Location: Bennemühlen
(52.5740°N, 9.7135°E)
Time: 23:35:27
(UTC+00:00)

ARIANE 5 R/B - Pass Details

Date: 19 May 2025
Orbit: 614 x 648 km, 98.0° (Epoch: 12 June)

Event Time Altitude Azimuth Distance (km) Brightness Sun altitude
Exits shadow 21:23:53 17° 124° (ESE) 1,562 4.1 -13.4°
Maximum altitude 21:26:40 36° 66° (ENE) 984 3.6 -13.5°
Drops below altitude 10° 21:30:40 10° 359° (N) 2,009 6.3 -13.8°
Sets 21:32:59 0° 351° (N) 2,926 7.6 -14.0°
